Location: Seven Kings
(51.5667°N, 0.1000°E)
Time: 02:46:49
(UTC+00:00)

Cosmos 1400 Rocket - Pass Details

Date: 29 October 2020
Orbit: 521 x 568 km, 81.2° (Epoch: 24 November)

Event Time Altitude Azimuth Distance (km) Brightness Sun altitude
Rises 17:07:28 0° 161° (SSE) 2,751 6.4 -5.3°
Reaches altitude 10° 17:09:53 10° 149° (SSE) 1,855 5.4 -5.7°
Maximum altitude 17:13:19 26° 92° (E) 1,112 3.8 -6.2°
Drops below altitude 10° 17:16:45 10° 34° (NE) 1,850 5.1 -6.7°
Sets 17:19:09 0° 22° (NNE) 2,741 6.0 -7.1°
